Volver al catálogo

CP5

ActivoCienciaVLEO
NORAD 38763·PAYLOAD·🇺🇸 United States

Lanzado Sep 13, 2012 desde Vandenberg Space Force Base

Loading…

Próximos Pases (próximas 24 horas)

TLE

ActualizadoSource: Space-Track

Época: Sep 14, 2026, 07:10 UTC

1 38763U 12048F   26257.29898363  .00008371  00000-0  28084-3 0  9996
2 38763  64.6435 217.6585 0063112 144.4156 216.1208 15.29611709130385

Sigue CP5 en tiempo real con AllMySat

Download on the App Store